User: anonymous   Login
Location: Unspecified
(0.0000°N, 0.0000°E)
Time: 04:32:19
(UTC+00:00)
Language:

QIANFAN-83 - Orbit

View from above orbital plane
View from above orbital plane
View from above satellite
View from above satellite

Ground track
Ground track

The orbit is defined by the following mean orbital elements,

1 63169U          26145.59892372 +.00000000 +00000-0 +10011-3 0 00007
2 63169  88.9693 302.3843 0013626 359.7677   0.3472 13.62036379    01
Epoch (UTC): 25 May 2026 14:22:27
Eccentricity: 0.0013626
inclination: 88.9693°
perigee height: 1018 km
apogee height: 1038 km
right ascension of ascending node: 302.3843°
argument of perigee: 359.7677°
revolutions per day: 13.62036379
mean anomaly at epoch: 0.3472°

The dashed part of the orbit path shows where the satellite is in the earth's shadow,  

DLR